Orbital Elements at Epoch 2459200.5 (2020-Dec-17.0) TDB
Reference: JPL 29 (heliocentric ecliptic J2000)
Element | Value | Uncertainty (1-sigma) | Units |
e | .0703141652553273 | 4.0766e-08 | |
a | 2.72841779244417 | 1.1584e-08 | au |
q | 2.536571372900675 | 1.154e-07 | au |
i | 2.718360034403087 | 3.452e-06 | deg |
node | 294.1927626511782 | 0.00010639 | deg |
peri | 124.2233441721771 | 0.00011198 | deg |
M | 337.7728192286364 | 3.3319e-05 | deg |
tp | 2459302.135778280999 (2021-Mar-28.63577828) | 0.00015229 | TDB |
period | 1646.132298896798 4.51 | 1.0483e-05 2.87e-08 | d yr |
n | .2186944513762741 | 1.3928e-09 | deg/d |
Q | 2.920264211987665 | 1.2398e-08 | au |
|
| | Orbit Determination Parameters
Additional Information
|